TimeMST,TemperatureF,Dew PointF,Humidity,Sea Level PressureIn,VisibilityMPH,Wind Direction,Wind SpeedMPH,Gust SpeedMPH,PrecipitationIn,Events,Conditions,WindDirDegrees,DateUTC
12:15 AM,29.3,21.4,72,30.22,10.0,West,23.0,-,N/A,,Scattered Clouds,270,2014-01-14 07:15:00
12:35 AM,29.3,21.2,72,30.23,10.0,West,20.7,27.6,N/A,,Clear,280,2014-01-14 07:35:00
12:55 AM,29.7,21.2,71,30.22,10.0,West,26.5,34.5,N/A,,Clear,280,2014-01-14 07:55:00
1:15 AM,29.8,21.2,70,30.23,10.0,West,25.3,32.2,N/A,,Clear,270,2014-01-14 08:15:00
1:35 AM,28.8,20.7,72,30.23,10.0,West,18.4,25.3,N/A,,Clear,270,2014-01-14 08:35:00
1:55 AM,28.2,20.3,72,30.24,10.0,West,19.6,-,N/A,,Clear,270,2014-01-14 08:55:00
2:15 AM,27.9,20.3,73,30.25,10.0,West,17.3,23.0,N/A,,Clear,270,2014-01-14 09:15:00
2:35 AM,27.5,19.9,73,30.27,10.0,West,13.8,-,N/A,,Clear,260,2014-01-14 09:35:00
2:55 AM,28.2,19.9,71,30.28,10.0,West,16.1,-,N/A,,Clear,260,2014-01-14 09:55:00
3:15 AM,27.3,19.4,72,30.28,10.0,WSW,12.7,-,N/A,,Clear,250,2014-01-14 10:15:00
3:35 AM,27.5,19.4,72,30.28,10.0,WSW,11.5,16.1,N/A,,Scattered Clouds,250,2014-01-14 10:35:00
3:55 AM,26.6,18.5,71,30.30,10.0,SW,6.9,-,N/A,,Scattered Clouds,220,2014-01-14 10:55:00
4:15 AM,24.8,18.1,76,30.30,10.0,SSW,10.4,-,N/A,,Mostly Cloudy,200,2014-01-14 11:15:00
4:35 AM,25.7,18.5,74,30.31,10.0,SSW,10.4,-,N/A,,Overcast,200,2014-01-14 11:35:00
4:55 AM,26.2,18.7,73,30.32,10.0,SSW,10.4,-,N/A,,Overcast,210,2014-01-14 11:55:00
5:15 AM,26.4,18.7,73,30.32,10.0,SSW,9.2,-,N/A,,Overcast,210,2014-01-14 12:15:00
5:35 AM,25.9,18.5,74,30.32,10.0,WSW,6.9,-,N/A,,Overcast,240,2014-01-14 12:35:00
5:55 AM,26.2,18.5,73,30.34,10.0,WSW,8.1,-,N/A,,Overcast,240,2014-01-14 12:55:00
6:15 AM,23.2,17.6,79,30.34,10.0,West,5.8,-,N/A,,Overcast,270,2014-01-14 13:15:00
6:35 AM,23.4,18.3,81,30.35,10.0,West,5.8,-,N/A,,Overcast,270,2014-01-14 13:35:00
6:55 AM,23.5,18.5,81,30.36,10.0,West,6.9,-,N/A,,Overcast,270,2014-01-14 13:55:00
7:15 AM,23.5,18.5,81,30.37,10.0,West,5.8,-,N/A,,Overcast,260,2014-01-14 14:15:00
7:35 AM,23.9,18.5,80,30.38,10.0,Calm,Calm,-,N/A,,Overcast,0,2014-01-14 14:35:00
7:55 AM,24.1,18.9,80,30.39,10.0,WSW,3.5,-,N/A,,Overcast,250,2014-01-14 14:55:00
8:15 AM,25.5,18.9,76,30.39,10.0,WSW,4.6,-,N/A,,Overcast,240,2014-01-14 15:15:00
8:35 AM,25.9,19.0,75,30.41,10.0,WSW,4.6,-,N/A,,Overcast,250,2014-01-14 15:35:00
8:55 AM,25.7,19.4,77,30.42,10.0,West,4.6,-,N/A,,Overcast,270,2014-01-14 15:55:00
9:15 AM,27.1,19.2,72,30.42,10.0,WSW,6.9,-,N/A,,Overcast,240,2014-01-14 16:15:00
9:35 AM,28.2,19.4,70,30.44,10.0,WSW,9.2,-,N/A,,Overcast,240,2014-01-14 16:35:00
9:55 AM,28.8,19.6,69,30.44,10.0,WSW,6.9,-,N/A,,Overcast,240,2014-01-14 16:55:00
10:15 AM,29.3,19.9,68,30.45,10.0,WSW,5.8,-,N/A,,Overcast,240,2014-01-14 17:15:00
10:35 AM,30.6,20.1,65,30.46,10.0,WSW,8.1,-,N/A,,Overcast,250,2014-01-14 17:35:00
10:55 AM,32.0,20.1,62,30.46,10.0,WSW,6.9,-,N/A,,Mostly Cloudy,240,2014-01-14 17:55:00
11:15 AM,32.0,20.3,62,30.45,10.0,WSW,6.9,-,N/A,,Mostly Cloudy,240,2014-01-14 18:15:00
11:35 AM,33.8,20.7,59,30.45,10.0,West,5.8,-,N/A,,Mostly Cloudy,260,2014-01-14 18:35:00
11:55 AM,35.1,21.0,57,30.44,10.0,West,8.1,-,N/A,,Overcast,270,2014-01-14 18:55:00
12:15 PM,34.5,21.9,60,30.44,10.0,West,6.9,-,N/A,,Overcast,260,2014-01-14 19:15:00
12:35 PM,34.3,21.4,59,30.44,10.0,West,9.2,-,N/A,,Overcast,260,2014-01-14 19:35:00
12:55 PM,34.2,21.6,60,30.44,10.0,WSW,6.9,-,N/A,,Overcast,250,2014-01-14 19:55:00
1:15 PM,34.5,21.4,59,30.44,10.0,West,6.9,-,N/A,,Overcast,260,2014-01-14 20:15:00
1:35 PM,34.7,20.7,57,30.44,10.0,West,4.6,-,N/A,,Overcast,260,2014-01-14 20:35:00
1:55 PM,34.7,21.9,60,30.44,10.0,WNW,6.9,-,N/A,,Overcast,300,2014-01-14 20:55:00
2:15 PM,34.5,21.7,60,30.44,10.0,WNW,5.8,-,N/A,,Overcast,300,2014-01-14 21:15:00
2:35 PM,34.9,21.7,59,30.44,10.0,NNW,4.6,-,N/A,,Overcast,330,2014-01-14 21:35:00
2:55 PM,36.1,21.6,56,30.44,10.0,NW,15.0,-,N/A,,Overcast,310,2014-01-14 21:55:00
3:15 PM,36.5,21.0,54,30.44,10.0,NW,16.1,-,N/A,,Scattered Clouds,310,2014-01-14 22:15:00
3:35 PM,35.8,21.6,56,30.44,10.0,WNW,11.5,-,N/A,,Clear,300,2014-01-14 22:35:00
3:55 PM,34.9,21.2,57,30.44,10.0,WNW,11.5,16.1,N/A,,Clear,290,2014-01-14 22:55:00
4:15 PM,33.1,21.2,62,30.44,10.0,West,8.1,-,N/A,,Scattered Clouds,280,2014-01-14 23:15:00
4:35 PM,30.2,20.3,67,30.45,10.0,WNW,8.1,-,N/A,,Scattered Clouds,290,2014-01-14 23:35:00
4:55 PM,30.2,20.3,67,30.46,10.0,WNW,6.9,-,N/A,,Clear,290,2014-01-14 23:55:00
5:15 PM,29.1,20.1,69,30.45,10.0,West,3.5,-,N/A,,Clear,270,2014-01-15 00:15:00
5:35 PM,26.1,18.3,73,30.44,10.0,Calm,Calm,-,N/A,,Clear,0,2014-01-15 00:35:00
5:55 PM,18.9,13.6,80,30.45,10.0,NE,4.6,-,N/A,,Clear,40,2014-01-15 00:55:00
6:15 PM,18.7,14.0,82,30.45,10.0,ENE,3.5,-,N/A,,Clear,70,2014-01-15 01:15:00
6:35 PM,19.8,14.7,81,30.49,10.0,Calm,Calm,-,N/A,,Clear,0,2014-01-15 01:35:00
6:55 PM,19.4,15.1,83,30.49,10.0,ENE,3.5,-,N/A,,Clear,60,2014-01-15 01:55:00
7:15 PM,19.6,15.1,83,30.49,10.0,Calm,Calm,-,N/A,,Clear,0,2014-01-15 02:15:00
7:35 PM,17.8,14.0,85,30.50,10.0,North,3.5,-,N/A,,Clear,350,2014-01-15 02:35:00
7:55 PM,16.3,12.0,83,30.49,10.0,Calm,Calm,-,N/A,,Clear,0,2014-01-15 02:55:00
8:15 PM,14.0,10.2,85,30.48,10.0,Calm,Calm,-,N/A,,Clear,0,2014-01-15 03:15:00
8:35 PM,13.3,10.0,87,30.48,10.0,Calm,Calm,-,N/A,,Clear,0,2014-01-15 03:35:00
8:55 PM,13.5,10.9,90,30.48,10.0,East,3.5,-,N/A,,Clear,90,2014-01-15 03:55:00
9:15 PM,12.2,9.1,88,30.48,10.0,NE,4.6,-,N/A,,Clear,50,2014-01-15 04:15:00
9:35 PM,12.7,10.2,90,30.49,10.0,NE,6.9,-,N/A,,Clear,40,2014-01-15 04:35:00
9:55 PM,13.3,10.0,87,30.48,10.0,NNE,5.8,-,N/A,,Clear,30,2014-01-15 04:55:00
10:15 PM,14.7,11.7,88,30.49,10.0,Calm,Calm,-,N/A,,Clear,0,2014-01-15 05:15:00
10:35 PM,13.1,9.9,87,30.48,10.0,Calm,Calm,-,N/A,,Clear,0,2014-01-15 05:35:00
10:55 PM,12.0,9.3,89,30.48,10.0,Calm,Calm,-,N/A,,Scattered Clouds,0,2014-01-15 05:55:00
11:15 PM,13.3,10.2,88,30.48,10.0,Calm,Calm,-,N/A,,Clear,0,2014-01-15 06:15:00
11:35 PM,13.8,10.4,86,30.47,10.0,East,3.5,-,N/A,,Clear,80,2014-01-15 06:35:00
11:55 PM,13.6,10.8,88,30.46,10.0,NNE,3.5,-,N/A,,Clear,20,2014-01-15 06:55:00